Volver al catálogo

STARLINK-35687

ActivoComunicacionesVLEO
NORAD 66524·PAYLOAD·🇺🇸 United States

Lanzado Nov 19, 2025 desde Cape Canaveral Space Force Station

Loading…

Próximos Pases (próximas 24 horas)

TLE

ActualizadoSource: CelesTrak SupGP

Época: Sep 15, 2026, 02:51 UTC

1 66524C 25265J   26258.11923611  .00010347  00000+0  37495-3 0  2583
2 66524  43.0029 288.5269 0001524 256.5097 325.1076 15.27556500    10

Sigue STARLINK-35687 en tiempo real con AllMySat

Download on the App Store